Orbital Elements at Epoch 2459200.5 (2020-Dec-17.0) TDB
Reference: JPL 13 (heliocentric ecliptic J2000)
Element | Value | Uncertainty (1-sigma) | Units |
e | .1272551539410942 | 3.6147e-08 | |
a | 2.216470670737299 | 9.4574e-09 | au |
q | 1.934413354326704 | 8.4306e-08 | au |
i | 2.770679238929616 | 4.0031e-06 | deg |
node | 66.58423264531811 | 8.9666e-05 | deg |
peri | 208.3016409160292 | 9.1759e-05 | deg |
M | 6.082820924101546 | 1.9095e-05 | deg |
tp | 2459180.134553289650 (2020-Nov-26.63455329) | 6.3907e-05 | TDB |
period | 1205.289602834892 3.30 | 7.7142e-06 2.112e-08 | d yr |
n | .2986834028546042 | 1.9117e-09 | deg/d |
Q | 2.498527987147895 | 1.0661e-08 | au |
|
| | Orbit Determination Parameters
Additional Information
|